Regional Weather Roundup
Issued by NWS

Home | Current Version | Previous Version | Text Only | Print | Product List | Glossary Off
Versions: 1 2 3 4 5 6 7 8 9 10 11 12 13 14 15 16 17 18 19 20 21 22 23 24 25 26 27 28 29 30 31 32 33 34 35 36 37 38 39 40 41 42 43 44 45 46 47 48 49 50

000
ASUS43 KDTX 242201
RWRMI
MICHIGAN HOURLY REGIONAL WEATHER ROUNDUP
NATIONAL WEATHER SERVICE DETROIT/PONTIAC MI
500 PM EST WED DEC 24 2014

NOTE: "FAIR" INDICATES FEW OR NO CLOUDS BELOW 12,000 FEET WITH NO
SIGNIFICANT WEATHER AND/OR OBSTRUCTION TO VISIBILITY.

MIZ047>049-052>055-059>063-066>070-074>076-081>083-242300-
SOUTHEAST LOWER MICHIGAN

CITY           SKY/WX    TMP DP  RH WIND       PRES   REMARKS
ADRIAN         LGT RAIN  40  38  93 N9        29.29F WCI  34
ALMA           LGT RAIN  37  37 100 NW9       29.37R WCI  30
ANN ARBOR      LGT RAIN  42  40  92 NW6       29.28F
BAD AXE        DRIZZLE   39  39 100 N12       29.29F WCI  32
CARO           MIX PCPN  39  38  98 N10       29.29F WCI  32
DETROIT CITY   RAIN      47  44  90 CALM      29.28S FOG
DETROIT        LGT RAIN  45  44  97 CALM      29.27F
FLINT          LGT RAIN  40  37  89 NW6       29.30F FOG
GROSSE ILE     RAIN      46  45  93 CALM      29.24F VSB 3/4
HILLSDALE      LGT RAIN  39  39 100 NW12      29.33R WCI  32
HOWELL         LGT RAIN  38  38 100 NW8       29.28F WCI  32

CITY           SKY/WX    TMP DP  RH WIND       PRES   REMARKS
JACKSON        LGT RAIN  38  37  97 NW7       29.29F WCI  33
LAMBERTVILLE   LGT RAIN  45  43  93 NW6       29.27F
LANSING        RAIN      38  36  92 N6        29.33F FOG     WCI  33
LAPEER         RAIN      40  40  97 CALM      29.28F
MASON          MIX PCPN  37  36  95 N7        29.30F WCI  32
MONROE         LGT RAIN  45  45 100 NW7       29.25F
MT. CLEMENS    LGT RAIN  44  43  97 NW7       29.24F
PONTIAC        LGT RAIN  41  40  96 N7        29.25F
PORT HOPE        N/A     38  37  97 N9        29.27F WCI  31
PORT HURON     LGT RAIN  43  43 100 NW5       29.27F
TRI CITIES     RAIN      40  37  89 N9        29.34R WCI  34
TROY           LGT RAIN  45  43  93 CALM      29.28F
SAGINAW HB     LGT SNOW  37  37 100 N9        29.31F WCI  31
$$
MIZ043>046-050>051-056>058-064>065-071>073-077>080-242300-
SOUTHWEST LOWER MICHIGAN

CITY           SKY/WX    TMP DP  RH WIND       PRES   REMARKS
BATTLE CREEK   LGT SNOW  35  32  88 NW12      29.38F FOG     WCI  27
BENTON HARBOR  LGT RAIN  37  35  92 W13       29.44F FOG     WCI  29
BIG RAPIDS     FLURRIES  35  35 100 NW9       29.38S WCI  28
COLDWATER      MIX PCPN  37  36  96 W14       29.39R WCI  28
FREMONT        DRIZZLE   35  35  97 NW5       29.40S WCI  31
HOLLAND        LGT RAIN  39  35  86 NW5       29.44R
GRAND RAPIDS   LGT RAIN  37  34  89 NW9       29.40R FOG     WCI  30
IONIA          MIX PCPN  37  36  97 NW9       29.36R WCI  30
KALAMAZOO      LGT RAIN  36  34  92 NW10G18   29.37F WCI  28
MARSHALL       LGT RAIN  37  36  96 W14       29.35R WCI  28
MOUNT PLEASANT MIX PCPN  36  35  97 CALM      29.34F
MUSKEGON       LGT RAIN  39  36  89 NW7       29.43S WCI  34
SOUTH HAVEN    LGT RAIN  39  37  92 W6        29.43F WCI  34
$$
MIZ016>042-242300-
NORTHERN LOWER MICHIGAN

CITY           SKY/WX    TMP DP  RH WIND       PRES   REMARKS
ALPENA         LGT RAIN  35  34  96 N10       29.39F WCI  27
BEAVER ISLAND  RAIN      36  35  98 CALM      29.43F
BELLAIRE       LGT SNOW  36  34  94 CALM      29.42F
CADILLAC       LGT RAIN  34  33  96 NW6       29.38F WCI  29
CHARLEVOIX     LGT RAIN  36  36 100 CALM      29.45F
FRANKFORT      DRIZZLE   37  36  96 CALM      29.43S
GAYLORD        LGT SNOW  33  33 100 CALM      29.38F FOG
GRAYLING       LGT SNOW  33  33 100 NW7       29.36F WCI  27
HARBOR SPRINGS LGT RAIN  34  33  96 CALM      29.43S
HOUGHTON LAKE  FLURRIES  33  32  96 N8        29.35F WCI  26
MANISTEE       CLOUDY    36  34  93 N5        29.43F WCI  32
OSCODA         LGT RAIN  37  37  99 N15       29.30F WCI  28
PELLSTON       LGT RAIN  34  33  96 CALM      29.43F
ROGERS CITY    LGT RAIN  36  36 100 N6        29.41F WCI  31
TRAVERSE CITY  LGT RAIN  37  36  96 NW6       29.41F FOG     WCI  32
$$
MIZ007>008-015-242300-
EASTERN UPPER MICHIGAN

CITY           SKY/WX    TMP DP  RH WIND       PRES   REMARKS
KINROSS        CLOUDY    36  34  93 N6        29.41F VSB 1/4 WCI  31
MACKINAC ISLAN MIX PCPN  35  35 100 NW3       29.42F VSB 1/2
NEWBERRY       LGT RAIN  34  34 100 CALM      29.43F
S. S. MARIE    LGT RAIN  35  33  92 CALM      29.42F VSB 1/2
MUNISING         N/A     36  31  82 N9        29.47S WCI  29
$$
MIZ004>006-011>014-085-242300-
CENTRAL UPPER MICHIGAN

CITY           SKY/WX    TMP DP  RH WIND       PRES   REMARKS
MANISTIQUE     LGT RAIN  33  33 100 N7        29.45F WCI  27
ESCANABA       CLOUDY    34  30  86 N7        29.47S WCI  28
MENOMINEE      CLOUDY    34  32  93 N8        29.47S WCI  27
SAWYER-GWINN   CLOUDY    30  28  93 N12       29.46F WCI  21
$$
MIZ001>003-009>011-084-242300-
WESTERN UPPER MICHIGAN

CITY           SKY/WX    TMP DP  RH WIND       PRES   REMARKS
IRON MOUNTAIN  CLOUDY    32  29  88 NW9       29.47S WCI  24
HOUGHTON       LGT SNOW  31  28  89 N7        29.51F FOG     WCI  24
COPPER HARBOR    N/A     33  28  81 NE10      29.52F WCI  25
IRONWOOD       CLOUDY    30  30 100 N5        29.53S WCI  25
$$

ABBREVIATIONS USED IN REMARKS
   TC - TEMPERATURE IN CELSIUS
  WCI - WIND CHILL INDEX
   HX - HEAT INDEX
  VSB - VISIBILITY




USA.gov is the U.S. government's official web portal to all federal, state and local government web resources and services.